"Pseudo-MPEC" for P222FIj
Created 2024 Dec 2 1:31:19 UT using Find_Orb
Click here for an explanation of pseudo-MPECs
Astrometry:
P222FIj* C2024 11 29.21890701 06 09.688+33 40 34.61 ~BT9l 22.08wXNEOCPF52
P222FIj C2024 11 29.23031401 06 11.886+33 40 41.76 ~BT9l 22.48wXNEOCPF52
P222FIj C2024 11 29.24174301 06 14.093+33 40 48.62 ~BT9l 22.67wXNEOCPF52
P222FIj C2024 11 29.25314401 06 16.239+33 40 55.12 ~BT9l 22.30wXNEOCPF52
P222FIj C2024 11 29.44111001 06 53.818+33 41 44.24 ~BTL2 20.99GVNEOCPF51
P222FIj C2024 11 29.44175601 06 53.960+33 41 44.17 ~BTL2 21.42GVNEOCPF51
P222FIj KC2024 11 30.05184501 10 01.75 +33 45 53.3 ~BU22 22.0 GVNEOCPH21
P222FIj KC2024 11 30.05762601 10 03.15 +33 45 56.6 ~BU22 22.1 GVNEOCPH21
P222FIj KC2024 11 30.06340601 10 04.53 +33 45 59.7 ~BU22 21.7 GVNEOCPH21
P222FIj KB2024 11 30.76782 01 13 57.83 +33 50 59.5 ~C12l VNEOCP204
P222FIj 1C2024 11 30.77296001 13 58.634+33 50 49.70 ~BUKl 20.9 GXNEOCP033
P222FIj 1C2024 11 30.77656001 13 59.657+33 50 51.10 ~BUKl 21.0 GXNEOCP033
P222FIj 1C2024 11 30.78016001 14 00.737+33 50 53.30 ~BUKl 20.6 GXNEOCP033
P222FIj 1C2024 11 30.78384001 14 01.889+33 50 55.40 ~BUKl 20.8 GXNEOCP033
P222FIj KB2024 11 30.81196 01 14 10.93 +33 51 25.1 ~C12l 21.2 GVNEOCP204
P222FIj 1C2024 12 01.77396001 20 34.688+33 58 38.00 ~C1MV 21.0 GXNEOCP033
P222FIj 1C2024 12 01.77646001 20 35.628+33 58 39.90 ~C1MV 21.4 GXNEOCP033
P222FIj KC2024 12 01.83798901 20 59.65 +33 59 29.5 ~C1NH 20.8 GVNEOCP587
P222FIj KC2024 12 01.84099901 21 00.70 +33 59 29.9 ~C1NH 21.4 GVNEOCP587
P222FIj C2024 12 01.85389 01 21 06.23 +33 59 43.5 ~C1Nl 21.3 RXNEOCP511
P222FIj C2024 12 01.85977 01 21 08.49 +33 59 45.4 ~C1Nl 21.3 RXNEOCP511
P222FIj C2024 12 01.86444 01 21 10.17 +33 59 48.1 ~C1Nl 21.3 RXNEOCP511
P222FIj C2024 12 01.86910 01 21 12.01 +33 59 49.9 ~C1Nl 21.3 RXNEOCP511
P222FIj C2024 12 01.87377 01 21 13.81 +33 59 51.1 ~C1Nl 21.3 RXNEOCP511
P222FIj C2024 12 01.87848 01 21 15.61 +33 59 52.2 ~C1Nl 21.3 RXNEOCP511
P222FIj KC2024 12 02.00544701 22 23.37 +34 00 53.9 ~C20l 21.8 GVNEOCPH21
P222FIj KC2024 12 02.00833601 22 24.55 +34 00 56.0 ~C20l 21.8 GVNEOCPH21
Station data:
(033) Karl Schwarzschild Observatory, Tautenburg (N50.980139 E11.711240)
Germany. Observer B. Stecklum. 1.34-m f/3 Schmidt + CCD.
(204) Schiaparelli Observatory (N45.868292 E8.769720) Italy. Observer L.
Buzzi. 0.60-m f/4.64 Newtonian + CCD0.84-m f/3.5 reflector + CCD.
(511) Haute Provence (N43.931873 E5.715700) France. Observers W.
Polycarpe, M. Dennefield, W. Thuillot, B. Carry, P. David, S. Bouquillon,
F. Taris, P. Tanga, M. Delbó, E. Saquet, V. Robert. Measurers W. Thuillot,
S. Bouquillon, F. Taris, T. Carlucci, C. Barache. 1.20-m f/6 reflector +
CCD.
(587) Sormano (N45.882946 E9.229180) Italy. Observers E. Colzani, E. Valli.
Measurer P. Sicoli. 0.5-m f/6.8 reflector + CCD.
(F51) Pan-STARRS 1, Haleakala (N20.707234 W156.255910) US/Hawaii.
Observers J. Bulger, T. Lowe, A. Schultz, M. Willman. Measurers K.
Chambers, S. Chastel, T. de Boer, L. Denneau, J. Fairlamb, H. Flewelling,
M. Huber, C.-C. Lin, E. Magnier, Y. Ramanjooloo, R. Wainscoat, R. Weryk.
1.8-m Ritchey-Chrétien + CCD.
(F52) Pan-STARRS 2, Haleakala (N20.707382 W156.255910) US/Hawaii.
Observers J. Bulger, T. Dukes, T. Lowe, A. Schultz, M. Willman. Measurers
K. Chambers, S. Chastel, T. de Boer, L. Denneau, J. Fairlamb, H.
Flewelling, M. Huber, C.-C. Lin, E. Magnier, Y. Ramanjooloo, R. Wainscoat,
R. Weryk. 1.8-m Ritchey-Chrétien + CCD.
(H21) Astronomical Research Observatory, Westfield (N39.483054 W87.968270)
US/Illinois. Observer R. Holmes. Measurers S. Foglia, L. Buzzi, T.
Linder, R. Holmes. 0.76-m f/3.0 astrograph + CCD0.81-m f/4.0 astrograph +
CCD0.61-m f/4.5 astrograph + CCD0.40-m f/5.32 astrograph + CCD.
Orbital elements: P222FIj
Perihelion 2024 Dec 22.01649 +/- 0.00175 TT = 0:23:45 (JD 2460666.51649)
Epoch 2024 Dec 2.0 TT = JDT 2460646.5 Earth MOID: 0.0104 AutoNEOCP
M 354.02786867 +/- 0.012 (J2000 ecliptic)
n 0.29836051 +/- 0.00061 Peri. 195.13438 +/- 0.0049
a 2.21806950 +/- 0.00302 Node 257.97269 +/- 0.0023
e 0.5557108 +/- 0.000607 Incl. 6.00341 +/- 0.0049
P 3.30341 H 26.57 G 0.15 U 7.8
q 0.98546428 +/- 1.3e-5 Q 3.45067473 +/- 0.00605
From 27 observations 2024 Nov. 29-Dec. 2; mean residual 0".32
Residuals in arcseconds: 241129 F52 .12- .12+ 241130 204 .19- .15- 241201 587 .36- .50- 241129 F52 .10- .08+ 241130 033 .50+ .47+ 241201 511 .42- .55+ 241129 F52 .19+ .11+ 241130 033 .27- .23- 241201 511 .07+ .08- 241129 F52 .06- .19+ 241130 033 .32- .10- 241201 511 1.0- .68+ 241129 F51 .06+ .14- 241130 033 .23+ .09- 241201 511 .10- .62+ 241129 F51 .01+ .22- 241130 204 .20+ .14- 241201 511 .22+ .02+ 241130 H21 .15+ .02- 241201 033 .11+ .32- 241201 511 .31+ .63- 241130 H21 .03+ .05- 241201 033 .09- .06+ 241202 H21 .06- .00 241130 H21 .31- .20- 241201 587 .75+ .47+ 241202 H21 .18+ .16- Ephemerides (geocentric): Date (UTC) HH RA Dec delta r elong mag " sig PA ---- -------- ------------ ------------ ------ ------ ----- --- -------- 2024 12 02 02 01 22 52.655 +34 02 04.67 .04381 1.0182 136.6 21.4 .064 140 2024 12 02 03 01 23 12.447 +34 02 24.36 .04362 1.0181 136.6 21.4 .068 138 2024 12 02 04 01 23 32.430 +34 02 44.02 .04343 1.0180 136.7 21.4 .071 136 2024 12 02 05 01 23 52.608 +34 03 03.63 .04323 1.0178 136.7 21.4 .075 134 2024 12 02 06 01 24 12.981 +34 03 23.21 .04304 1.0177 136.7 21.4 .079 132 2024 12 02 07 01 24 33.554 +34 03 42.74 .04285 1.0176 136.8 21.4 .083 131 2024 12 02 08 01 24 54.328 +34 04 02.22 .04266 1.0174 136.8 21.4 .087 129 2024 12 02 09 01 25 15.306 +34 04 21.65 .04247 1.0173 136.9 21.4 .092 127 2024 12 02 10 01 25 36.491 +34 04 41.02 .04227 1.0172 136.9 21.4 .097 126 2024 12 02 11 01 25 57.885 +34 05 00.33 .04208 1.0170 136.9 21.3 .102 125 2024 12 02 12 01 26 19.491 +34 05 19.57 .04189 1.0169 137.0 21.3 .107 124 2024 12 02 13 01 26 41.312 +34 05 38.75 .04170 1.0168 137.0 21.3 .112 122 2024 12 02 14 01 27 03.351 +34 05 57.84 .04151 1.0166 137.1 21.3 .118 121 2024 12 02 15 01 27 25.610 +34 06 16.86 .04132 1.0165 137.1 21.3 .124 120 2024 12 02 16 01 27 48.093 +34 06 35.79 .04112 1.0164 137.1 21.3 .130 119 2024 12 02 17 01 28 10.803 +34 06 54.64 .04093 1.0162 137.2 21.3 .136 118 2024 12 02 18 01 28 33.742 +34 07 13.38 .04074 1.0161 137.2 21.3 .143 117 2024 12 02 19 01 28 56.913 +34 07 32.03 .04055 1.0160 137.3 21.3 .150 116 2024 12 02 20 01 29 20.321 +34 07 50.57 .04036 1.0159 137.3 21.2 .157 116 2024 12 02 21 01 29 43.967 +34 08 08.99 .04017 1.0157 137.4 21.2 .164 115 2024 12 02 22 01 30 07.856 +34 08 27.29 .03998 1.0156 137.4 21.2 .172 114 2024 12 02 23 01 30 31.990 +34 08 45.47 .03979 1.0155 137.5 21.2 .180 113 2024 12 03 00 01 30 56.374 +34 09 03.52 .03960 1.0153 137.5 21.2 .188 113 2024 12 03 01 01 31 21.009 +34 09 21.43 .03941 1.0152 137.6 21.2 .197 112 2024 12 03 02 01 31 45.901 +34 09 39.19 .03922 1.0151 137.6 21.2 .205 111 2024 12 03 03 01 32 11.051 +34 09 56.80 .03903 1.0150 137.7 21.2 .214 111 2024 12 03 04 01 32 36.465 +34 10 14.25 .03884 1.0148 137.7 21.2 .224 110 2024 12 03 05 01 33 02.145 +34 10 31.53 .03865 1.0147 137.8 21.1 .233 110 2024 12 03 06 01 33 28.096 +34 10 48.63 .03846 1.0146 137.8 21.1 .243 109 2024 12 03 07 01 33 54.321 +34 11 05.55 .03827 1.0145 137.9 21.1 .254 109 2024 12 03 08 01 34 20.824 +34 11 22.27 .03808 1.0143 137.9 21.1 .264 108 2024 12 03 09 01 34 47.610 +34 11 38.79 .03789 1.0142 138.0 21.1 .275 108 2024 12 03 10 01 35 14.681 +34 11 55.10 .03770 1.0141 138.0 21.1 .287 107 2024 12 03 11 01 35 42.042 +34 12 11.19 .03751 1.0140 138.1 21.1 .298 107 2024 12 03 12 01 36 09.698 +34 12 27.05 .03732 1.0138 138.2 21.1 .311 107 2024 12 03 13 01 36 37.652 +34 12 42.67 .03713 1.0137 138.2 21.0 .323 106 2024 12 03 14 01 37 05.909 +34 12 58.04 .03694 1.0136 138.3 21.0 .336 106 2024 12 03 15 01 37 34.473 +34 13 13.15 .03675 1.0135 138.4 21.0 .349 106 2024 12 03 16 01 38 03.349 +34 13 27.98 .03656 1.0133 138.4 21.0 .363 105 2024 12 03 17 01 38 32.541 +34 13 42.53 .03637 1.0132 138.5 21.0 .377 105 2024 12 03 18 01 39 02.054 +34 13 56.79 .03619 1.0131 138.5 21.0 .391 105 2024 12 03 19 01 39 31.893 +34 14 10.74 .03600 1.0130 138.6 21.0 .406 104 2024 12 03 20 01 40 02.062 +34 14 24.36 .03581 1.0128 138.7 20.9 .422 104 2024 12 03 21 01 40 32.566 +34 14 37.65 .03562 1.0127 138.8 20.9 .438 104 2024 12 03 22 01 41 03.411 +34 14 50.60 .03543 1.0126 138.8 20.9 .454 104 2024 12 03 23 01 41 34.601 +34 15 03.18 .03524 1.0125 138.9 20.9 .471 103 2024 12 04 00 01 42 06.142 +34 15 15.39 .03506 1.0124 139.0 20.9 .488 103 2024 12 04 01 01 42 38.039 +34 15 27.21 .03487 1.0122 139.0 20.9 .506 103